This is the latest recevied weather packets stored in our database for station/object KB3KBR-WX. If no packets are shown the sender has not sent any weather packets the latest 10 day(s).
| Time | Temp. | Humidity | Pressure | Rain* | Wind** | Luminosity | Snow |
|---|---|---|---|---|---|---|---|
| 1778155981 | 3.89° C | 93% | 1009.6 hPa | 0 mm | - | - | - |
| 1778155651 | 2.78° C | 93% | 1009.7 hPa | 0 mm | - | - | - |
| 1778155351 | 2.22° C | 93% | 1009.7 hPa | 0 mm | - | - | - |
| 1778154721 | 1.67° C | 92% | 1009.9 hPa | 0 mm | - | - | - |
| 1778154421 | 1.11° C | 92% | 1010 hPa | 0 mm | - | - | - |
| 1778154121 | 1.11° C | 92% | 1010 hPa | 0 mm | - | - | - |
| 1778153791 | 1.11° C | 92% | 1010 hPa | 0 mm | - | - | - |
| 1778153501 | 1.11° C | 92% | 1010.1 hPa | 0 mm | - | - | - |
| 1778153491 | 1.11° C | 92% | 1010.1 hPa | 0 mm | - | - | - |
| 1778153191 | 1.11° C | 92% | 1009.9 hPa | 0 mm | - | - | - |
| 1778152861 | 0.56° C | 92% | 1009.9 hPa | 0 mm | - | - | - |
| 1778152561 | 0.56° C | 92% | 1009.9 hPa | 0 mm | - | - | - |
| 1778152261 | 0° C | 92% | 1009.8 hPa | 0 mm | - | - | - |
| 1778151931 | 0° C | 91% | 1010 hPa | 0 mm | - | - | - |
| 1778151601 | 0° C | 91% | 1009.9 hPa | 0 mm | - | - | - |
| 1778151301 | 0° C | 91% | 1009.8 hPa | 0 mm | - | - | - |
| 1778150971 | 0° C | 91% | 1009.8 hPa | 0 mm | - | - | - |
| 1778150641 | 0° C | 91% | 1009.7 hPa | 0 mm | - | - | - |
| 1778150311 | 0° C | 91% | 1009.6 hPa | 0 mm | - | - | - |
| 1778149981 | 0° C | 91% | 1009.5 hPa | 0 mm | - | - | - |
| 1778149651 | 0° C | 91% | 1009.4 hPa | 0 mm | - | - | - |
| 1778149351 | 0° C | 91% | 1009.4 hPa | 0 mm | - | - | - |
| 1778149051 | 0.56° C | 91% | 1009.4 hPa | 0 mm | - | - | - |
| 1778148721 | 0° C | 91% | 1009.5 hPa | 0 mm | - | - | - |
| 1778148392 | 0.56° C | 91% | 1009.4 hPa | 0 mm | - | - | - |
* Rain latest hour (hover to see other rain measurements)
** Current wind speed in m/s (hover to see current wind gust speed)